Date String (YYYY-MM-DD hh:mm:ss) UTC,Instrument flags,Ambient pressure (hPa),Sample flow (lpm),Bypass flow (lpm),Sample temperature (°C),Ambient temperature (°C),ASC tube jacket temperature (°C),LED temperature (°C),Box temperature (°C),Sample RH (%),Span deviation,Mass concentration (μg/m³),Mass concentration (μg/m³),Mass concentration (μg/m³)
DateTimeUTC,F1_M11,P_M11,Q1_M11,Q2_M11,T1_M11,T2_M11,T3_M11,T4_M11,T5_M11,U1_M11,ZSPAN_M11,X0_M11,X2_M11,X1_M11
2021-09-09 07:00:00,,0831.2,5.00,0.00,29.8,28.8,00.0,38.8,31.6,17.8,0001.5,0045.37,0028.27,0025.62
2021-09-09 07:01:00,,0831.2,5.00,0.00,29.9,28.8,00.0,38.9,31.6,17.8,0001.2,0044.01,0028.18,0025.57
2021-09-09 07:02:00,,0831.3,5.00,0.00,29.9,28.9,00.0,38.9,31.7,17.7,0001.1,0043.47,0028.12,0025.54
2021-09-09 07:03:00,,0831.2,5.00,0.00,29.9,28.9,00.0,38.9,31.7,17.8,0001.1,0042.55,0028.06,0025.52
2021-09-09 07:04:00,,0831.2,4.99,0.00,29.9,28.9,00.0,38.9,31.7,17.8,0000.9,0040.79,0027.98,0025.46
2021-09-09 07:05:00,,0831.3,5.00,0.00,29.9,29.0,00.0,38.9,31.7,17.7,0000.9,0041.64,0028.01,0025.47
2021-09-09 07:06:00,,0831.3,5.00,0.00,30.0,29.0,00.0,39.0,31.8,17.7,0001.0,0041.10,0027.95,0025.46
2021-09-09 07:07:00,,0831.3,5.01,0.00,30.0,28.9,00.0,39.0,31.7,17.6,0001.1,0040.56,0027.80,0025.44
2021-09-09 07:08:00,,0831.3,5.00,0.00,29.9,27.1,00.0,39.0,31.3,17.7,0001.3,0040.49,0027.75,0025.41
2021-09-09 07:09:00,,0831.3,5.00,0.00,29.8,26.1,00.0,38.9,31.0,17.8,0001.4,0041.43,0027.76,0025.41
2021-09-09 07:10:00,,0831.3,4.99,0.00,29.7,26.3,00.0,38.9,31.0,18.0,0001.3,0042.77,0027.70,0025.39
2021-09-09 07:11:00,,0831.3,5.00,0.00,29.6,26.7,00.0,38.8,31.0,18.0,0001.3,0042.97,0027.68,0025.40
2021-09-09 07:12:00,,0831.3,5.00,0.00,29.5,27.1,00.0,38.8,31.1,18.1,0001.5,0043.36,0027.71,0025.39
2021-09-09 07:13:00,,0831.3,5.02,0.00,29.5,27.4,00.0,38.8,31.1,18.1,0001.6,0043.75,0027.70,0025.38
2021-09-09 07:14:00,,0831.3,5.00,0.00,29.6,27.7,00.0,38.8,31.2,18.0,0001.6,0043.37,0027.64,0025.37
2021-09-09 07:15:00,,0831.3,4.99,0.00,29.6,27.9,00.0,38.8,31.2,18.0,0001.9,0042.86,0027.57,0025.36
2021-09-09 07:16:00,,0831.3,5.01,0.00,29.6,28.1,00.0,38.8,31.3,18.0,0001.9,0042.41,0027.43,0025.34
2021-09-09 07:17:00,,0831.3,4.99,0.00,29.6,28.2,00.0,38.7,31.3,18.0,0002.3,0043.50,0027.40,0025.34
2021-09-09 07:18:00,,0831.3,5.00,0.00,29.6,28.3,00.0,38.7,31.3,18.0,0002.4,0043.44,0027.43,0025.35
2021-09-09 07:19:00,,0831.3,5.01,0.00,29.7,28.4,00.0,38.8,31.4,18.0,0002.3,0043.27,0027.38,0025.32
2021-09-09 07:20:00,,0831.3,5.00,0.00,29.7,28.5,00.0,38.8,31.4,17.9,0002.4,0043.08,0027.39,0025.30
2021-09-09 07:21:00,,0831.3,5.00,0.00,29.7,28.5,00.0,38.8,31.4,17.8,0002.6,0042.31,0027.46,0025.34
2021-09-09 07:22:00,,0831.4,5.00,0.00,29.7,28.6,00.0,38.8,31.5,17.8,0002.8,0041.91,0027.48,0025.32
2021-09-09 07:23:00,,0831.3,5.00,0.00,29.8,28.6,00.0,38.8,31.5,17.9,0002.9,0042.25,0027.45,0025.32
2021-09-09 07:24:00,,0831.3,5.00,0.00,29.8,28.7,00.0,38.8,31.5,17.8,0002.9,0042.36,0027.39,0025.32
2021-09-09 07:25:00,,0831.3,5.00,0.00,29.8,28.7,00.0,38.8,31.6,17.7,0002.9,0043.02,0027.45,0025.32
2021-09-09 07:26:00,,0831.3,5.00,0.00,29.8,28.7,00.0,38.8,31.6,17.7,0002.6,0044.34,0027.52,0025.35
2021-09-09 07:27:00,,0831.3,4.99,0.00,29.8,28.8,00.0,38.9,31.6,17.7,0002.6,0044.29,0027.56,0025.36
2021-09-09 07:28:00,,0831.3,5.00,0.00,29.9,28.8,00.0,38.9,31.6,17.7,0002.5,0043.18,0027.50,0025.34
2021-09-09 07:29:00,,0831.2,5.01,0.00,29.9,28.8,00.0,38.9,31.6,17.7,0002.4,0044.17,0027.54,0025.36
2021-09-09 07:30:00,,0831.2,4.99,0.00,29.9,28.9,00.0,38.9,31.7,17.6,0002.6,0045.20,0027.56,0025.37
2021-09-09 07:31:00,,0831.2,5.01,0.00,29.9,28.9,00.0,38.9,31.7,17.6,0002.6,0044.60,0027.47,0025.37
2021-09-09 07:32:00,,0831.2,4.99,0.00,30.0,28.9,00.0,38.9,31.7,17.6,0002.5,0044.76,0027.36,0025.32
2021-09-09 07:33:00,,0831.2,5.00,0.00,30.0,29.0,00.0,39.0,31.8,17.6,0002.5,0044.63,0027.23,0025.27
2021-09-09 07:34:00,,0831.2,5.00,0.00,30.0,29.0,00.0,39.0,31.8,17.5,0002.3,0043.40,0027.18,0025.25
2021-09-09 07:35:00,,0831.2,5.01,0.00,30.0,29.0,00.0,39.0,31.8,17.5,0002.1,0043.95,0027.16,0025.21
2021-09-09 07:36:00,,0831.2,4.98,0.00,30.0,29.0,00.0,39.0,31.8,17.5,0002.1,0043.79,0027.07,0025.17
2021-09-09 07:37:00,,0831.1,5.01,0.00,30.0,29.1,00.0,39.0,31.8,17.5,0002.2,0042.87,0027.05,0025.13
2021-09-09 07:38:00,,0831.2,5.00,0.00,30.1,28.9,00.0,39.1,31.8,17.5,0002.3,0042.27,0027.07,0025.10
2021-09-09 07:39:00,,0831.2,5.01,0.00,30.0,27.0,00.0,39.0,31.3,17.5,0002.3,0042.38,0027.10,0025.08
2021-09-09 07:40:00,,0831.2,4.99,0.00,29.8,26.1,00.0,39.0,31.1,17.6,0002.3,0041.91,0027.08,0025.03
2021-09-09 07:41:00,,0831.2,5.01,0.00,29.7,26.3,00.0,39.0,31.1,17.7,0002.3,0041.15,0027.06,0025.00
2021-09-09 07:42:00,,0831.2,5.00,0.00,29.6,26.8,00.0,38.9,31.1,17.8,0002.5,0041.44,0027.07,0024.96
2021-09-09 07:43:00,,0831.2,5.01,0.00,29.6,27.1,00.0,38.9,31.1,17.8,0002.4,0040.86,0027.06,0024.92
2021-09-09 07:44:00,,0831.2,5.00,0.00,29.6,27.5,00.0,38.9,31.2,17.8,0002.5,0041.57,0027.15,0024.91
2021-09-09 07:45:00,,0831.2,5.00,0.00,29.6,27.7,00.0,38.8,31.2,17.8,0002.5,0042.48,0027.19,0024.89
2021-09-09 07:46:00,,0831.1,5.00,0.00,29.6,27.9,00.0,38.8,31.3,17.8,0002.8,0041.84,0027.22,0024.85
2021-09-09 07:47:00,,0831.1,4.99,0.00,29.6,28.1,00.0,38.8,31.3,17.8,0002.8,0041.39,0027.12,0024.80
2021-09-09 07:48:00,,0831.1,4.99,0.00,29.7,28.3,00.0,38.8,31.4,17.8,0002.7,0041.53,0027.04,0024.77
2021-09-09 07:49:00,,0831.2,5.01,0.00,29.7,28.4,00.0,38.8,31.4,17.8,0002.6,0041.52,0026.92,0024.73
2021-09-09 07:50:00,,0831.2,4.99,0.00,29.7,28.5,00.0,38.8,31.4,17.7,0002.5,0040.85,0026.84,0024.67
2021-09-09 07:51:00,,0831.1,5.00,0.00,29.7,28.5,00.0,38.8,31.4,17.7,0002.6,0039.87,0026.68,0024.60
2021-09-09 07:52:00,,0831.1,5.00,0.00,29.7,28.6,00.0,38.8,31.5,17.7,0002.4,0039.50,0026.60,0024.58
2021-09-09 07:53:00,,0831.1,4.99,0.00,29.8,28.6,00.0,38.8,31.5,17.7,0002.2,0039.98,0026.56,0024.55
2021-09-09 07:54:00,,0831.2,5.01,0.00,29.8,28.7,00.0,38.9,31.5,17.7,0001.9,0039.99,0026.53,0024.50
2021-09-09 07:55:00,,0831.1,5.00,0.00,29.8,28.7,00.0,38.9,31.5,17.7,0001.6,0039.52,0026.49,0024.45
2021-09-09 07:56:00,,0831.2,5.00,0.00,29.8,28.7,00.0,38.9,31.6,17.7,0001.5,0038.62,0026.48,0024.43
2021-09-09 07:57:00,,0831.1,5.00,0.00,29.9,28.8,00.0,38.9,31.6,17.7,0001.3,0038.13,0026.39,0024.39
2021-09-09 07:58:00,,0831.2,4.99,0.00,29.9,28.8,00.0,38.9,31.6,17.6,0001.3,0039.91,0026.44,0024.39
2021-09-09 07:59:00,,0831.1,5.00,0.00,29.9,28.8,00.0,38.9,31.6,17.6,0001.5,0039.90,0026.42,0024.33
